Wind_Speed
44 44 44 44 44 44 45 44 44 44 44 43 43 43 43 43 42 41 41 40 39 38 38 38 38 38 38 39 39 40 40 40 40 40 40 40 40 41 42 43 43 45 47 49 49 50 51 50 48 47 46 46 47 48 49 51 53 53 52 51 50 49 47
44 44 44 44 44 43 43 43 43 43 43 42 42 42 42 42 41 41 40 39 39 39 38 37 38 38 38 38 38 39 39 39 38 38 38 38 38 38 39 40 40 41 44 45 46 47 49 50 49 47 46 45 45 45 46 48 49 51 52 51 49 48 48
45 45 44 44 44 43 43 43 43 42 42 42 42 41 41 41 41 41 40 39 38 38 38 38 37 37 37 37 37 37 38 38 38 37 37 37 37 37 37 38 38 38 39 40 40 41 44 46 47 47 46 46 45 45 44 45 47 48 50 50 50 49 47
46 46 45 45 45 44 44 44 43 43 43 43 42 42 41 41 41 41 40 39 38 38 38 39 38 37 37 36 37 37 37 37 37 37 37 37 36 36 36 36 37 37 37 36 36 37 39 41 43 45 45 44 44 44 44 45 46 47 48 49 49 49 48
47 47 47 47 46 46 46 45 45 44 44 44 44 43 43 42 42 41 41 39 38 37 38 39 39 39 38 37 37 37 37 37 37 36 36 36 36 36 36 36 36 36 36 36 36 35 35 38 41 43 43 42 41 41 42 43 44 44 45 46 48 48 49
48 48 48 48 48 48 48 47 47 46 46 46 46 46 45 44 43 43 42 40 39 38 37 38 39 40 40 39 39 38 37 37 37 37 36 36 36 36 36 36 36 36 36 36 36 35 35 35 38 40 39 38 37 36 36 37 39 40 41 42 44 45 46
49 49 50 50 50 49 49 49 49 48 48 48 48 48 48 47 46 45 44 42 40 39 38 38 38 40 41 41 40 40 39 38 37 37 37 37 36 36 36 36 36 36 36 36 36 36 35 35 36 37 37 36 35 34 33 33 34 35 36 37 38 39 39
50 50 50 50 51 51 51 51 50 50 50 50 50 50 50 50 50 48 46 45 43 41 40 39 38 40 41 42 42 41 41 40 39 38 38 37 37 37 37 37 36 36 36 36 36 36 36 36 36 37 37 36 35 34 34 33 33 33 34 35 35 35 34
50 51 51 51 51 51 51 51 51 51 51 51 51 51 52 52 52 51 50 48 46 44 42 41 39 40 41 42 43 43 42 42 41 41 40 39 38 38 37 38 37 37 37 37 37 37 36 36 36 37 37 37 36 35 34 34 35 35 35 35 35 36 34
49 49 50 50 50 50 50 50 50 50 51 51 52 52 52 53 54 54 53 51 49 47 45 43 42 41 42 43 43 43 43 43 43 42 42 41 40 40 39 39 38 38 38 37 37 38 38 37 37 37 38 38 38 37 36 36 36 37 37 37 37 37 38
47 47 47 48 48 48 48 48 48 49 49 50 50 51 52 53 54 54 54 53 52 50 47 46 45 44 43 44 44 44 44 44 44 43 43 43 42 42 41 40 40 40 39 39 38 38 38 39 38 38 39 40 39 39 39 38 38 39 39 39 39 38 39
46 45 45 46 46 46 46 45 45 46 47 47 48 48 50 52 54 54 54 53 51 49 48 47 47 46 45 44 45 45 45 44 44 44 44 44 43 43 42 42 42 42 41 40 40 39 39 40 40 39 40 41 41 40 40 40 40 40 40 41 41 40 39
45 45 44 44 44 44 44 44 44 44 44 45 45 45 47 50 53 54 53 52 49 47 47 48 48 46 45 45 45 45 45 45 45 45 45 45 44 43 43 43 43 43 43 43 42 41 40 40 40 40 40 41 41 41 41 40 40 40 41 42 42 42 41
45 44 44 44 44 43 42 42 42 42 42 42 43 43 45 48 51 51 51 50 47 45 46 47 47 46 46 45 45 45 46 46 45 46 46 46 45 44 44 44 43 43 44 44 44 43 42 41 40 41 41 41 41 42 42 41 40 40 40 41 41 42 42
44 43 43 43 43 43 42 41 41 41 41 41 41 42 44 46 48 48 48 47 44 42 44 45 46 45 45 45 45 45 45 45 45 46 47 46 45 45 45 44 44 44 44 44 45 44 43 42 42 42 42 42 42 43 43 42 41 40 40 41 41 41 41
42 42 41 41 41 41 40 40 40 41 41 40 40 42 44 45 45 45 45 44 40 39 41 42 43 44 44 44 44 44 44 44 45 46 47 46 45 45 45 45 44 44 43 44 45 45 45 44 44 43 43 43 43 44 43 43 42 42 42 42 42 41 41
41 41 41 40 40 40 39 38 38 39 40 40 40 41 43 44 45 45 44 42 38 37 38 39 40 42 42 42 41 41 42 43 44 45 46 46 46 46 45 44 43 42 42 43 44 45 46 46 46 45 44 44 45 45 44 44 44 44 43 43 43 43 41
41 40 40 40 40 40 39 38 37 38 38 38 39 41 42 43 44 45 44 41 38 36 37 38 38 39 40 39 39 38 39 40 42 44 45 46 47 46 44 42 42 42 42 42 42 43 45 46 46 45 45 45 45 46 45 45 45 45 45 45 44 44 43
40 40 39 39 39 39 39 39 38 37 37 37 38 40 41 42 43 43 42 41 39 37 37 37 37 37 38 38 37 36 37 38 39 42 45 46 46 44 42 41 43 42 41 40 41 42 44 44 45 45 45 45 45 46 46 46 47 47 46 46 46 46 45
41 40 39 39 39 38 39 39 38 37 37 37 37 39 40 41 42 41 41 41 39 38 37 37 37 37 37 37 36 35 35 36 38 41 43 44 43 42 41 42 43 42 40 40 40 41 42 42 43 44 45 45 45 46 46 47 48 48 48 47 47 47 47
41 41 40 39 39 38 38 39 38 37 37 37 37 37 39 40 40 41 41 41 39 38 38 37 37 37 37 37 36 35 35 36 37 40 41 41 42 42 42 42 41 40 40 39 39 40 40 41 42 42 43 44 44 44 45 46 47 48 49 49 48 47 47
42 41 40 38 37 37 37 38 38 38 37 37 37 36 37 38 38 39 40 40 39 38 39 38 37 36 37 37 36 35 35 36 36 38 39 40 41 42 42 42 42 41 40 39 39 39 39 40 41 42 42 43 43 43 43 44 46 48 49 49 49 48 48
41 41 38 36 34 34 35 35 36 36 37 37 37 36 36 36 37 38 39 39 38 38 38 38 37 36 36 37 36 35 35 35 36 36 37 38 40 41 41 41 41 41 41 40 39 39 39 39 40 41 41 42 42 42 43 43 44 46 47 48 49 49 49
40 40 37 34 31 30 31 32 32 33 35 36 37 36 36 35 36 36 37 38 37 37 37 37 36 36 36 36 36 36 36 36 36 36 37 37 38 39 40 40 40 41 41 40 39 39 39 38 39 40 41 41 41 41 42 43 43 44 45 46 47 48 48
40 39 37 35 32 30 29 29 30 30 32 34 34 34 34 34 35 35 36 37 37 37 37 36 35 35 35 35 36 36 36 37 37 37 37 38 38 39 40 40 40 40 40 40 39 39 38 38 38 39 40 40 40 40 41 41 42 42 43 44 45 45 46
39 39 38 36 34 31 29 28 29 29 31 32 31 31 32 32 33 34 35 35 36 36 37 36 35 34 34 34 35 36 36 36 36 36 37 37 38 39 40 41 41 41 41 40 40 39 39 39 39 39 40 40 40 40 40 41 41 41 42 43 43 43 43
39 39 38 36 34 32 30 28 28 29 30 31 31 30 30 30 31 32 33 34 34 35 35 35 34 33 33 34 34 36 37 37 37 36 36 36 37 38 39 40 41 41 41 41 41 40 39 39 39 40 40 41 41 41 41 42 42 41 42 42 43 42 41
38 38 38 37 35 33 30 28 27 29 29 29 29 29 28 28 29 30 31 32 33 33 33 33 32 31 31 32 33 35 36 37 37 38 37 37 37 37 38 38 39 40 40 41 41 41 39 38 39 39 40 40 41 41 42 43 43 43 43 43 43 43 42
39 39 39 38 36 35 32 29 27 28 28 28 28 28 28 27 27 28 28 29 31 32 31 31 30 30 30 31 32 32 33 34 36 37 37 37 37 37 37 37 38 39 40 40 41 41 39 38 37 37 38 39 39 40 40 42 43 43 43 43 44 44 44
40 40 40 40 38 36 35 32 30 28 28 27 27 27 28 28 28 28 28 28 30 30 30 29 29 29 29 29 30 30 31 32 34 35 35 36 37 37 36 36 37 38 39 40 41 40 39 39 38 37 37 37 37 37 38 39 40 41 42 42 43 43 43
39 40 40 41 40 38 36 34 32 30 29 28 28 28 28 28 28 29 29 29 30 30 29 29 29 28 28 29 29 29 30 31 32 33 34 34 35 35 35 35 35 37 38 39 39 39 39 39 39 38 37 37 37 36 36 37 38 39 40 40 41 41 41
37 39 40 40 41 40 39 37 34 33 31 30 29 29 29 29 28 27 28 29 30 30 28 28 29 28 28 28 28 28 29 30 31 31 32 33 34 33 33 34 34 35 37 37 37 38 38 39 38 38 37 37 37 36 36 36 36 37 38 39 39 39 39
35 37 38 39 40 41 42 40 38 36 34 32 32 32 32 30 28 27 27 28 29 29 28 28 29 28 28 28 28 28 28 29 29 30 31 32 32 32 32 33 34 35 35 35 35 36 36 36 37 37 37 37 37 37 36 35 35 36 37 38 38 37 37
33 35 37 37 38 40 42 41 40 38 37 35 34 34 35 33 30 28 29 29 30 29 28 28 28 28 28 28 28 28 28 28 28 29 30 30 31 31 31 32 33 34 34 34 35 35 35 35 35 36 36 36 36 36 36 35 35 35 36 37 37 37 36
30 33 35 36 36 38 40 40 40 39 38 37 37 37 37 37 34 31 31 31 31 31 30 29 29 28 28 28 28 28 28 28 28 28 29 29 30 30 30 31 32 33 33 34 34 34 34 34 34 34 35 35 35 35 35 35 34 35 35 36 36 36 36
32 32 32 33 35 38 39 39 39 38 37 37 37 38 39 39 37 35 33 32 32 32 32 31 30 29 28 28 28 28 28 28 28 28 29 29 30 30 30 30 31 31 32 33 33 33 33 33 33 34 34 35 35 34 34 34 34 34 35 35 35 36 36
Wind_Direction
294 293 292 291 291 290 290 290 290 289 289 288 288 288 287 287 287 287 287 286 285 284 283 281 279 278 276 274 272 271 270 270 270 270 269 268 267 266 264 262 260 262 264 262 259 258 257 257 258 259 261 262 262 262 263 263 263 261 260 258 257 254 252
294 293 293 292 292 291 291 290 289 289 288 287 286 286 286 285 285 285 285 284 284 284 283 281 280 279 278 276 274 272 270 269 268 267 267 266 266 265 264 263 261 261 261 259 257 255 255 255 254 253 255 255 255 255 256 257 260 261 261 260 258 257 255
294 294 293 293 292 292 291 291 290 289 288 287 286 285 284 284 284 283 283 283 283 283 282 281 279 278 278 277 275 274 272 270 268 266 265 264 263 262 262 262 261 260 259 258 257 255 254 254 253 253 253 252 252 252 251 251 252 255 257 257 257 256 255
293 293 292 292 291 291 291 290 290 289 289 288 287 285 284 283 283 282 282 281 281 282 282 281 280 278 277 276 275 274 273 271 269 267 265 263 262 260 259 259 259 258 257 257 256 255 254 254 255 255 254 253 252 252 251 250 249 249 250 251 252 253 254
292 291 291 290 290 289 289 288 288 288 288 288 287 286 285 284 282 281 281 280 281 281 281 281 281 279 278 276 274 273 273 272 271 269 268 266 264 261 260 258 257 257 256 255 255 255 255 255 255 255 254 254 253 253 254 252 250 248 247 247 248 250 251
290 290 289 288 288 288 287 287 287 286 286 286 286 286 285 284 283 281 281 280 280 279 279 280 281 281 279 277 276 274 273 272 271 270 269 268 266 264 263 261 259 258 257 255 254 253 254 254 255 255 255 255 254 253 254 254 253 251 248 246 246 246 247
289 288 288 287 287 286 286 286 285 285 285 285 285 285 285 284 283 282 281 280 279 278 278 278 279 280 280 279 277 275 274 272 271 270 269 268 267 266 265 264 263 262 261 259 256 254 254 253 253 254 255 256 255 254 254 254 255 254 251 248 245 243 243
290 289 288 287 286 286 285 285 285 284 284 283 283 283 283 283 282 282 281 280 279 278 278 278 278 279 279 279 278 277 275 274 272 270 269 268 268 267 266 266 265 264 264 263 261 258 256 255 253 253 254 256 256 256 255 254 255 256 256 254 251 247 243
292 291 289 288 287 286 286 285 285 284 284 283 283 282 282 282 281 281 281 280 279 279 278 278 279 278 278 278 278 277 276 276 275 273 270 269 268 266 266 266 265 265 265 264 264 262 260 259 257 256 256 257 258 259 259 257 256 255 256 257 257 255 251
294 293 292 291 289 288 287 286 285 285 284 284 283 282 281 281 280 280 280 280 279 279 279 280 280 279 278 277 277 277 277 276 275 274 273 271 269 267 266 265 265 265 265 265 265 264 263 262 261 261 260 261 262 263 262 260 258 257 256 256 257 259 259
296 295 294 292 291 290 289 288 287 285 284 284 283 283 282 281 280 280 279 279 279 280 280 281 280 278 277 277 276 276 276 275 275 274 274 273 272 271 269 267 266 264 264 264 264 264 265 264 263 263 263 263 264 264 265 263 261 259 258 256 256 257 259
298 296 295 293 292 291 290 289 288 287 285 284 283 283 282 281 280 279 279 279 280 281 281 280 278 277 277 277 276 275 275 275 274 274 273 273 272 272 271 270 269 267 266 264 264 263 264 264 264 263 264 264 264 264 264 264 263 262 261 259 257 256 256
299 298 297 295 294 292 291 290 289 288 286 285 284 284 283 281 280 279 280 281 281 281 280 279 277 277 276 276 276 275 274 274 274 273 273 272 272 271 271 271 270 270 269 267 266 264 263 263 263 264 263 263 264 264 264 264 264 264 263 262 260 259 258
301 299 298 297 295 294 292 292 290 289 288 286 285 284 283 281 281 281 281 282 282 281 280 279 278 277 276 275 275 275 274 274 273 273 272 271 271 271 271 270 270 270 270 269 268 267 265 264 263 263 263 263 263 263 263 263 263 263 263 263 262 261 261
302 301 300 298 296 294 293 292 291 290 288 288 286 285 283 282 283 283 283 283 284 283 281 280 279 278 276 275 275 275 275 274 273 272 271 271 271 270 270 270 270 270 270 270 270 269 268 267 266 264 263 263 262 262 262 262 262 262 261 262 261 261 262
304 303 302 300 299 297 296 294 292 290 289 288 287 285 284 284 284 284 284 285 286 285 283 281 280 279 277 276 276 276 276 275 274 273 272 271 271 270 269 269 270 270 270 270 270 270 270 268 267 265 264 264 263 262 261 261 261 261 260 260 259 259 259
304 303 302 301 300 299 298 296 294 292 290 288 287 285 284 284 283 283 284 285 286 285 283 281 280 279 278 278 277 276 276 276 275 274 273 272 271 270 270 270 270 270 271 270 270 270 270 269 268 267 266 266 265 263 262 261 261 261 260 260 259 258 257
307 306 305 303 302 300 298 297 295 293 292 290 289 287 285 283 282 282 283 285 285 284 283 282 281 280 280 279 278 278 277 276 276 275 274 272 272 272 272 272 271 270 270 270 270 269 269 270 270 270 269 268 267 266 265 264 262 261 261 260 260 259 258
311 311 310 308 305 303 300 298 296 295 293 292 291 289 288 286 285 284 285 285 285 286 285 283 282 282 281 280 279 279 278 277 277 275 273 272 273 275 275 273 271 269 269 269 269 269 269 270 270 270 269 269 268 268 267 266 265 264 262 261 260 260 259
313 312 311 309 307 305 303 300 299 297 295 293 292 291 290 289 289 289 289 288 288 289 288 286 285 284 282 281 281 280 279 278 277 275 274 274 275 276 275 274 273 272 271 269 269 269 269 269 270 270 270 269 269 268 268 267 267 266 265 263 262 262 261
315 314 312 310 307 305 303 301 300 299 297 294 292 291 290 290 291 291 290 289 290 290 289 288 287 286 284 283 282 281 280 279 278 277 277 277 277 276 275 275 275 274 273 271 270 269 269 269 269 269 270 270 270 269 268 268 268 267 267 266 265 264 263
319 317 314 312 309 306 303 301 300 299 297 295 293 292 292 291 291 290 289 289 289 289 289 288 288 287 286 285 284 282 280 279 278 278 278 277 277 276 277 277 276 276 275 274 272 271 269 269 269 268 269 269 269 269 269 268 268 268 268 268 267 266 265
323 321 319 316 313 309 306 303 301 300 298 296 295 294 294 293 292 291 290 289 288 288 287 287 287 287 286 286 285 284 282 279 278 277 276 276 276 276 277 277 277 277 276 276 275 273 272 270 269 268 268 268 269 269 269 269 268 268 268 268 268 268 267
326 325 323 321 318 315 311 308 306 303 300 298 297 296 295 294 293 292 291 290 289 288 287 287 287 287 287 286 286 285 283 281 280 278 276 275 275 275 275 275 276 276 276 276 276 276 274 273 272 271 269 269 268 268 268 268 268 268 268 268 269 269 270
329 329 328 326 324 322 318 314 311 308 304 301 301 300 298 296 294 292 291 290 290 289 288 288 288 287 287 287 286 284 283 282 281 279 278 277 276 276 275 275 275 275 275 275 275 275 275 275 274 273 272 271 270 269 268 268 268 269 269 268 268 269 270
332 333 333 333 332 328 324 320 316 312 308 306 306 305 302 300 298 295 293 292 290 289 288 288 287 287 286 286 286 284 283 282 281 280 279 278 277 276 276 275 275 275 274 274 274 274 274 274 274 273 273 272 271 270 269 269 268 268 269 268 268 268 269
334 334 335 338 339 335 331 327 321 315 311 311 310 309 306 303 301 299 297 296 294 292 290 289 289 288 287 286 285 284 284 283 283 282 281 280 279 278 277 276 276 276 275 275 274 273 272 272 272 272 272 272 272 271 271 270 269 268 268 268 268 268 268
334 334 336 339 342 340 339 337 329 321 318 316 314 312 308 305 302 299 298 297 296 294 293 293 292 290 288 285 283 282 282 283 283 283 283 282 281 281 280 279 278 278 277 276 275 274 273 272 271 271 271 271 271 271 271 271 270 269 268 268 268 268 267
334 334 335 338 341 340 342 344 339 332 328 324 320 316 312 309 305 302 299 298 296 295 295 295 294 291 288 285 282 281 281 281 281 281 281 282 281 281 281 281 281 280 279 278 277 276 276 274 273 272 271 271 270 270 271 271 270 270 270 269 268 268 268
333 333 333 336 338 338 339 342 342 339 335 331 326 322 318 314 311 308 306 303 301 299 299 298 297 294 291 288 286 284 282 280 279 279 279 280 280 280 281 281 281 281 280 279 279 279 278 277 276 274 273 272 271 270 270 270 270 270 269 269 268 268 268
330 329 329 331 333 333 334 336 337 337 336 333 330 327 323 320 318 315 313 309 305 304 304 303 300 298 296 293 290 288 286 283 281 280 280 279 279 279 280 280 280 280 280 279 280 280 279 278 277 275 274 273 272 271 270 269 269 269 269 268 268 268 268
327 326 326 327 328 328 328 330 332 333 333 331 329 327 326 326 325 323 319 313 309 309 309 306 303 301 299 297 294 292 289 286 284 283 281 280 279 279 279 278 277 277 277 278 279 279 279 279 278 277 276 275 273 272 271 270 270 270 270 269 269 268 267
325 323 323 324 324 323 323 326 328 329 329 328 327 324 323 325 327 326 321 317 315 314 313 308 305 303 302 300 298 295 292 290 288 286 283 282 281 280 279 278 277 276 276 277 277 277 278 279 279 279 278 277 276 274 273 272 271 271 271 270 270 269 268
324 321 320 321 321 319 319 322 324 326 326 326 324 321 319 321 324 324 320 317 317 317 316 312 310 308 305 302 299 298 296 293 291 288 286 285 283 282 280 278 277 277 277 277 276 276 277 277 278 278 278 278 277 276 275 274 273 271 271 271 270 270 269
326 323 321 321 319 316 317 320 322 323 324 323 321 318 317 318 320 320 317 316 315 314 314 314 314 313 310 306 303 300 298 296 294 292 289 287 285 283 282 280 279 278 278 277 277 277 277 277 277 277 277 277 277 277 277 276 275 274 273 272 271 270 269
330 327 325 323 319 316 317 319 320 321 322 321 319 316 315 315 316 316 315 314 313 311 309 310 311 311 310 308 306 304 301 298 296 294 292 290 289 287 285 283 281 280 279 278 278 278 278 277 276 276 276 276 276 276 276 276 276 275 275 274 273 272 270
Height
2978 2975 2973 2971 2969 2966 2964 2962 2960 2958 2956 2954 2952 2951 2949 2947 2946 2944 2942 2941 2939 2938 2937 2935 2934 2933 2932 2931 2930 2930 2929 2928 2927 2927 2927 2926 2925 2924 2924 2923 2922 2922 2923 2923 2922 2922 2921 2923 2924 2924 2925 2926 2926 2927 2928 2928 2928 2929 2929 2930 2931 2932 2934
2971 2969 2967 2965 2963 2961 2958 2957 2954 2952 2950 2949 2947 2945 2944 2942 2941 2939 2938 2936 2934 2933 2932 2931 2929 2928 2927 2926 2925 2924 2923 2923 2922 2922 2921 2920 2920 2919 2919 2918 2917 2917 2917 2916 2916 2916 2915 2917 2918 2917 2918 2919 2919 2920 2921 2921 2922 2922 2923 2924 2925 2925 2926
2965 2963 2961 2959 2957 2955 2953 2951 2949 2947 2945 2943 2941 2940 2938 2937 2935 2934 2933 2931 2930 2928 2927 2926 2924 2923 2922 2921 2920 2919 2918 2917 2917 2916 2916 2915 2915 2914 2913 2913 2912 2912 2911 2911 2911 2910 2910 2911 2912 2911 2912 2912 2912 2913 2914 2914 2915 2916 2917 2918 2919 2919 2920
2960 2957 2956 2953 2951 2949 2947 2945 2943 2941 2939 2937 2935 2934 2933 2931 2930 2928 2927 2926 2925 2924 2922 2920 2919 2918 2917 2916 2915 2914 2913 2912 2911 2911 2911 2910 2909 2909 2908 2908 2907 2907 2906 2906 2906 2906 2905 2905 2906 2906 2906 2906 2906 2907 2908 2908 2909 2910 2910 2912 2912 2912 2913
2954 2952 2950 2948 2946 2944 2942 2939 2938 2936 2934 2932 2930 2928 2926 2925 2924 2923 2922 2921 2920 2919 2917 2915 2914 2913 2912 2911 2910 2909 2908 2907 2907 2906 2905 2905 2904 2904 2903 2903 2902 2901 2901 2901 2901 2901 2901 2900 2901 2901 2901 2901 2901 2901 2902 2902 2903 2904 2904 2905 2906 2906 2906
2949 2946 2944 2942 2939 2937 2935 2933 2931 2929 2928 2926 2924 2922 2920 2919 2918 2916 2915 2915 2914 2913 2912 2911 2909 2907 2906 2905 2904 2904 2903 2902 2902 2901 2900 2900 2899 2899 2898 2897 2897 2896 2896 2895 2895 2896 2896 2896 2896 2896 2896 2896 2896 2897 2897 2897 2897 2898 2899 2899 2900 2900 2900
2943 2940 2938 2935 2933 2931 2929 2927 2925 2923 2921 2920 2917 2915 2914 2912 2911 2910 2909 2909 2908 2907 2907 2906 2904 2902 2900 2899 2898 2898 2897 2897 2896 2896 2895 2894 2894 2894 2893 2892 2892 2891 2891 2890 2890 2890 2890 2891 2891 2891 2891 2891 2891 2892 2892 2893 2893 2893 2893 2894 2894 2894 2894
2936 2934 2931 2929 2927 2925 2923 2921 2919 2917 2915 2913 2911 2909 2907 2905 2904 2903 2903 2902 2902 2901 2901 2900 2899 2897 2894 2893 2893 2892 2891 2891 2890 2890 2890 2889 2889 2888 2888 2887 2887 2887 2886 2885 2885 2885 2885 2885 2885 2885 2886 2886 2886 2886 2886 2887 2888 2888 2889 2889 2889 2889 2890
2928 2926 2924 2922 2920 2918 2916 2914 2912 2910 2908 2906 2904 2903 2900 2898 2897 2896 2895 2895 2895 2895 2895 2895 2894 2892 2889 2888 2887 2886 2885 2885 2884 2883 2883 2883 2883 2883 2882 2882 2882 2881 2881 2880 2880 2879 2879 2879 2879 2879 2880 2880 2881 2881 2881 2881 2882 2883 2884 2885 2885 2884 2885
2922 2919 2917 2915 2913 2911 2909 2907 2906 2903 2901 2899 2897 2895 2893 2891 2890 2889 2888 2888 2888 2888 2888 2889 2888 2886 2884 2882 2881 2880 2879 2879 2878 2877 2877 2877 2877 2877 2877 2876 2876 2876 2875 2875 2875 2874 2874 2874 2874 2874 2874 2874 2875 2875 2875 2875 2876 2877 2878 2880 2880 2880 2880
2915 2913 2910 2908 2906 2904 2902 2901 2899 2896 2894 2892 2890 2888 2885 2884 2882 2881 2881 2881 2881 2881 2882 2882 2881 2880 2878 2877 2875 2874 2873 2873 2872 2871 2871 2870 2870 2870 2870 2870 2870 2870 2870 2870 2869 2869 2869 2868 2868 2868 2868 2868 2869 2869 2869 2870 2870 2871 2872 2873 2874 2875 2874
2909 2907 2904 2901 2899 2897 2895 2894 2892 2889 2887 2885 2884 2881 2878 2876 2874 2873 2873 2873 2874 2875 2875 2874 2873 2873 2872 2871 2869 2868 2867 2867 2866 2865 2865 2864 2864 2864 2864 2864 2863 2863 2863 2863 2864 2864 2863 2863 2863 2863 2862 2862 2863 2863 2864 2864 2865 2866 2866 2867 2868 2869 2869
2903 2900 2898 2895 2893 2891 2889 2887 2885 2883 2881 2879 2877 2875 2872 2869 2867 2866 2866 2867 2868 2868 2867 2865 2865 2865 2865 2864 2863 2862 2861 2860 2859 2859 2858 2858 2858 2858 2858 2858 2858 2857 2857 2857 2857 2857 2857 2857 2857 2857 2857 2856 2856 2857 2857 2858 2859 2860 2860 2861 2862 2863 2863
2897 2894 2892 2889 2887 2885 2883 2881 2879 2877 2875 2873 2871 2869 2865 2862 2860 2860 2859 2860 2861 2861 2859 2858 2858 2858 2858 2857 2856 2855 2854 2853 2853 2852 2851 2851 2852 2852 2852 2852 2852 2851 2850 2850 2850 2850 2851 2851 2851 2851 2850 2850 2851 2850 2851 2852 2853 2854 2854 2854 2856 2857 2856
2891 2889 2886 2883 2881 2879 2877 2876 2873 2871 2869 2867 2865 2862 2859 2856 2855 2855 2853 2853 2854 2854 2852 2851 2850 2850 2850 2850 2849 2848 2847 2847 2846 2845 2844 2845 2845 2845 2845 2845 2845 2845 2844 2844 2843 2843 2844 2844 2845 2844 2844 2844 2844 2844 2845 2846 2847 2847 2848 2849 2850 2851 2850
2886 2883 2880 2877 2875 2873 2872 2870 2867 2865 2863 2861 2859 2856 2853 2851 2850 2849 2848 2848 2848 2848 2846 2844 2843 2843 2842 2843 2843 2842 2841 2839 2839 2838 2838 2838 2839 2839 2839 2839 2839 2839 2838 2838 2837 2837 2837 2837 2838 2838 2838 2838 2838 2838 2839 2840 2840 2841 2842 2843 2844 2845 2845
2881 2878 2875 2872 2870 2867 2865 2864 2862 2859 2857 2855 2853 2850 2847 2846 2844 2843 2842 2842 2843 2842 2840 2838 2837 2836 2835 2836 2836 2835 2834 2833 2831 2831 2831 2831 2831 2832 2832 2833 2833 2833 2832 2832 2832 2831 2830 2830 2831 2831 2832 2832 2831 2832 2833 2833 2834 2835 2836 2837 2837 2839 2840
2876 2873 2870 2867 2864 2861 2859 2858 2856 2853 2851 2850 2847 2844 2842 2840 2838 2837 2837 2837 2837 2836 2834 2832 2831 2830 2829 2829 2829 2829 2828 2826 2825 2824 2824 2824 2824 2825 2826 2826 2826 2826 2826 2826 2825 2825 2824 2824 2824 2824 2825 2825 2825 2825 2826 2827 2827 2828 2829 2830 2831 2832 2834
2871 2869 2866 2862 2859 2856 2853 2851 2850 2848 2846 2844 2842 2838 2836 2834 2833 2832 2832 2831 2831 2831 2829 2827 2826 2825 2824 2823 2823 2823 2822 2821 2820 2818 2817 2817 2818 2819 2819 2819 2819 2820 2820 2820 2819 2819 2818 2818 2818 2818 2818 2819 2819 2819 2819 2819 2820 2820 2822 2823 2824 2825 2826
2866 2864 2861 2858 2855 2852 2848 2846 2844 2843 2840 2838 2836 2833 2830 2828 2827 2826 2826 2825 2825 2825 2823 2822 2821 2820 2818 2818 2818 2818 2816 2815 2814 2812 2811 2812 2813 2812 2812 2812 2812 2813 2814 2814 2813 2813 2813 2813 2812 2812 2812 2812 2813 2813 2813 2813 2813 2813 2814 2815 2817 2818 2819
2862 2859 2857 2854 2850 2847 2844 2840 2838 2837 2835 2833 2831 2829 2826 2824 2823 2821 2820 2819 2820 2819 2818 2817 2816 2815 2813 2812 2812 2812 2811 2810 2808 2806 2806 2806 2805 2804 2805 2805 2806 2806 2806 2807 2807 2808 2808 2807 2806 2806 2806 2806 2806 2807 2807 2807 2806 2806 2807 2808 2809 2810 2811
2858 2854 2851 2849 2845 2842 2839 2836 2833 2831 2829 2827 2825 2824 2822 2820 2818 2816 2814 2813 2814 2813 2812 2812 2811 2810 2809 2807 2807 2807 2806 2805 2803 2802 2801 2800 2799 2798 2798 2799 2799 2799 2799 2800 2801 2801 2801 2801 2801 2801 2800 2800 2800 2800 2800 2800 2800 2800 2800 2801 2801 2802 2804
2854 2850 2846 2844 2841 2838 2835 2832 2829 2826 2824 2822 2821 2819 2818 2816 2814 2811 2809 2808 2808 2807 2806 2806 2806 2805 2804 2803 2802 2801 2801 2800 2799 2798 2796 2795 2794 2793 2792 2792 2792 2792 2793 2793 2794 2794 2795 2795 2794 2794 2795 2795 2794 2794 2794 2794 2794 2794 2794 2794 2794 2795 2796
2850 2846 2842 2840 2838 2835 2831 2828 2825 2823 2820 2817 2816 2815 2813 2812 2809 2807 2805 2803 2802 2801 2800 2800 2800 2799 2798 2797 2796 2796 2795 2794 2793 2792 2791 2790 2789 2788 2787 2787 2787 2786 2786 2787 2788 2788 2788 2788 2788 2788 2788 2788 2788 2789 2788 2788 2788 2788 2788 2788 2788 2788 2788
2847 2843 2839 2836 2834 2832 2829 2825 2822 2820 2816 2813 2811 2810 2808 2807 2805 2802 2800 2798 2797 2796 2795 2794 2795 2794 2793 2791 2790 2789 2788 2788 2787 2786 2785 2785 2784 2783 2782 2782 2781 2781 2781 2781 2782 2782 2782 2782 2782 2781 2782 2782 2782 2783 2782 2782 2782 2782 2782 2782 2782 2783 2782
2845 2840 2837 2833 2830 2828 2825 2823 2820 2816 2813 2810 2808 2807 2804 2802 2800 2798 2796 2794 2793 2791 2790 2789 2789 2789 2788 2786 2785 2783 2782 2781 2781 2780 2779 2778 2778 2777 2776 2776 2775 2775 2775 2775 2775 2776 2776 2776 2776 2775 2775 2775 2775 2776 2776 2776 2777 2777 2776 2776 2776 2777 2777
2842 2838 2834 2831 2828 2825 2822 2820 2817 2813 2810 2808 2805 2803 2801 2798 2796 2794 2791 2789 2788 2786 2785 2784 2784 2783 2782 2781 2779 2777 2776 2775 2774 2774 2773 2772 2771 2771 2770 2769 2769 2768 2768 2769 2769 2769 2770 2770 2770 2769 2769 2769 2769 2769 2769 2769 2770 2770 2771 2770 2770 2771 2772
2840 2836 2832 2829 2826 2823 2820 2818 2815 2811 2808 2805 2803 2800 2798 2795 2793 2790 2788 2786 2784 2782 2780 2779 2779 2778 2777 2776 2774 2773 2771 2769 2768 2767 2767 2766 2766 2765 2764 2763 2763 2762 2762 2761 2761 2762 2763 2763 2763 2763 2763 2763 2763 2763 2762 2762 2762 2763 2763 2764 2764 2765 2766
2837 2833 2829 2826 2824 2820 2817 2816 2813 2809 2806 2803 2800 2797 2794 2792 2790 2787 2785 2782 2780 2778 2777 2775 2775 2774 2772 2771 2769 2768 2767 2765 2763 2762 2761 2760 2759 2759 2758 2757 2757 2756 2755 2754 2754 2754 2755 2756 2756 2757 2756 2756 2757 2757 2756 2755 2755 2756 2756 2757 2757 2758 2758
2833 2830 2826 2823 2820 2818 2814 2812 2810 2807 2803 2800 2797 2794 2791 2789 2786 2783 2781 2779 2776 2774 2773 2771 2770 2769 2767 2766 2764 2763 2762 2761 2759 2757 2756 2755 2754 2753 2753 2752 2751 2750 2749 2748 2747 2748 2748 2749 2749 2750 2750 2750 2750 2750 2750 2749 2749 2749 2749 2750 2750 2751 2751
2831 2827 2823 2819 2816 2814 2811 2809 2806 2803 2800 2797 2794 2791 2788 2786 2783 2781 2778 2775 2772 2771 2769 2767 2765 2764 2763 2761 2759 2758 2757 2756 2754 2753 2752 2750 2749 2748 2748 2747 2746 2744 2743 2742 2742 2742 2742 2742 2742 2743 2743 2743 2743 2743 2743 2743 2742 2742 2742 2742 2743 2744 2744
2830 2826 2822 2818 2814 2810 2808 2806 2803 2800 2797 2794 2791 2788 2785 2783 2781 2778 2775 2772 2769 2767 2766 2764 2761 2760 2758 2757 2755 2754 2752 2751 2749 2748 2747 2745 2745 2744 2743 2742 2740 2739 2737 2737 2737 2736 2736 2736 2736 2736 2736 2737 2737 2737 2737 2737 2737 2736 2736 2736 2736 2737 2737
2830 2825 2821 2817 2813 2808 2804 2802 2800 2797 2795 2792 2789 2785 2782 2780 2778 2775 2772 2769 2766 2764 2762 2760 2758 2756 2755 2753 2751 2749 2748 2746 2745 2743 2742 2740 2740 2739 2739 2737 2735 2734 2732 2732 2731 2731 2730 2730 2730 2729 2730 2730 2730 2730 2731 2732 2732 2731 2730 2730 2730 2730 2731
2830 2824 2820 2816 2812 2807 2802 2799 2797 2794 2791 2788 2786 2782 2779 2777 2775 2773 2769 2766 2762 2760 2758 2756 2754 2752 2751 2749 2747 2745 2743 2742 2740 2739 2737 2736 2734 2734 2733 2732 2730 2729 2728 2727 2726 2725 2725 2725 2724 2724 2723 2724 2724 2724 2724 2725 2725 2725 2724 2724 2724 2724 2724
2828 2823 2818 2814 2809 2805 2800 2797 2794 2791 2789 2785 2782 2779 2775 2773 2771 2770 2767 2764 2760 2757 2754 2752 2750 2748 2746 2744 2743 2741 2739 2738 2736 2735 2733 2731 2730 2729 2728 2727 2725 2724 2723 2722 2721 2720 2720 2719 2719 2718 2718 2717 2717 2718 2718 2718 2719 2719 2718 2718 2718 2718 2718
2824 2821 2817 2812 2806 2801 2797 2795 2791 2788 2786 2783 2779 2775 2771 2768 2767 2765 2763 2761 2758 2754 2751 2749 2746 2744 2742 2740 2738 2736 2735 2733 2732 2730 2729 2727 2725 2724 2723 2722 2721 2719 2718 2717 2716 2716 2715 2714 2714 2713 2712 2711 2711 2712 2712 2712 2712 2712 2712 2712 2712 2712 2712